STARLINER CFT-1

Last updated on Sun Sep 08 2024 00:02:08 GMT+0000 (Coordinated Universal Time)

1 59968U 24109A 24250.60080433 .00073683 00000+0 13481-2 0 9995 2 59968 51.6378 272.0371 0007776 321.4625 189.0019 15.48652149 14650
UTC large
Height (km)
Speed (km/s)
/
Latitude / Longitude
Inclination (degrees)
Orbital Period (minutes)
Azimuth
Elevation
Range (km)
Doppler Factor

Next 0 passes for location: London (51.5072 / 0.1276)

Sorry there are no passes over London.